Zurück zum Katalog

STARLINK-31494

AktivKommunikationVLEO
NORAD 59238·PAYLOAD·🇺🇸 United States

Gestartet Mar 16, 2024 von Cape Canaveral Space Force Station

Loading…

Nächste Überflüge (nächste 24 Stunden)

TLE

AktuellSource: CelesTrak SupGP

Epoche: Sep 15, 2026, 03:24 UTC

1 59238C 24049H   26258.14215278  .00048953  00000+0  17732-2 0  2587
2 59238  43.0000 153.3776 0001316 269.7468  70.8084 15.27551959    18

Verfolge STARLINK-31494 in Echtzeit mit AllMySat

Download on the App Store